Погода в Ахткарспелене

Нидерланды     53°12′52″N   6°08′32″E
темп.,
°C
ветер,
м/с
пор.,
м/с
влажн.,
%
обл.,
%
осадки,
мм/ч
давл.,
гПа
погр.,
м
8 августа, пн
пн823:00+13сз22895 0.0 102534
02:00+13зсз228937 0.0 102521
05:00+12з229177 0.0 102521
08:00+16зюз128296 0.0 1025111
11:00+19ссз2262100 0.1 1026753
14:00+23ссз544733 0.1 10261594
17:00+22с544784 0.0 10261351
20:00+19с45635 0.0 1027664
9 августа, вт
вт923:00+14ссв33895 0.0 102848
02:00+13св22905 0.0 102821
05:00+12всв22915 0.0 102815
08:00+16всв12805 0.0 1029114
11:00+22ссв44480 0.0 10291099
14:00+24ссв54425 0.0 10281420
17:00+23ссв65495 0.0 10281017
20:00+19ссв566267 0.0 1028436
10 августа, ср
ср1023:00+15св368714 0.0 102993
02:00+14всв349115 0.0 102869
05:00+13в229210 0.0 102827
08:00+16в23795 0.0 1028125
11:00+23всв33485 0.0 1027854
14:00+27св44375 0.0 10261483
17:00+26св65435 0.0 10251116
20:00+21св57590 0.0 1025328
11 августа, чт
чт1123:00+16св47850 0.0 1025121
02:00+14в35829 0.0 102477
05:00+14в33830 0.0 102442
08:00+18в24650 0.0 1024121
11:00+26всв34350 0.0 1023739
14:00+30всв44250 0.0 10221748
17:00+28ссв76330 0.0 1021906
20:00+23св610510 0.0 1020280
12 августа, пт
пт1223:00+18св49710 0.0 1020138
02:00+17всв36770 0.0 102090
05:00+16в34705 0.0 102045
08:00+20в35505 0.0 1020128
11:00+29всв34264 0.0 1019718
14:00+32св44210 0.0 10182113
17:00+30св77280 0.0 1017799
20:00+25св612415 0.0 1017301